ELECTRON KICK STAGE R/B

Satellite information

Favourite Embed

Satellite Type and Status

ROCKET BODYIN ORBIT

Key statistics

Satellite ELECTRON KICK STAGE R/B at a glance.

Uptime

231

Days in orbit

Revolutions

≈ 14.9

Per day

Orbit

SSO

Sun Synchronous Orbit

Inclination

98.0

Latest

Satellite identification and parameters

Extended collection of information and parameters for ELECTRON KICK STAGE R/B.

Object identification

Identified? True

Debris? False

Object name: ELECTRON KICK STAGE R/B

International designator: 2024-172G

Object number (NORAD): 61226

Object ID (CCSDS): 61226

Country: UNITED STATES OF AMERICA (US)

Current information (Y/N): Y

RCS size: MEDIUM

Orbital parameters

Period: 96.368 minutes

Inclination: 98.002 deg

SMA: 6962.769 km

Apoapsis: 620.894 km

Periapsis: 548.373 km

RAAN: 224.0834 deg

Eccentricy: 0.0052078

Argument of periapsis: 16.0478 deg

Mean anomaly: 344.2377 deg

Mean motion: 14.94272536 rev/day

Mean motion (dot): 0.00004107 rev/day2

B* drag term: 0.00037828 1/REarth

Two-line elements (TLE)

Creation date: May 8, 2025, 3:01 a.m.

Reference frame: TEME

Reference center: EARTH

Epoch: May 7, 2025, 8:45 p.m. UTC

TLE line 0: 0 ELECTRON KICK STAGE R/B

TLE line 1: 1 61226U 24172G 25127.86506328 .00004107 00000-0 37828-3 0 9991

TLE line 2: 2 61226 98.0020 224.0834 0052078 16.0478 344.2377 14.94272536 34087

Live tracking on map

Real-time ground track for satellite ELECTRON KICK STAGE R/B.

In-orbit conjunctions

A list of the most updated potential collisions computed for object ELECTRON KICK STAGE R/B.

Target Orbit TCA Probability of collision Miss distance Type
COSMOS 375 DEB LEO 2024-12-03 19:03:53 0.000179172 900.0 (m) DEBRIS
FENGYUN 1C DEB SSO 2024-11-13 01:39:34 0.0007079946 221.0 (m) DEBRIS
CZ-4C R/B LEO 2024-11-11 22:03:02 0.0005827774 115.0 (m) ROCKET BODY

Associated space launch

Second batch of five satellites for the French Kinéis IoT constellation designed to operate with 25 nanosatellites of 30 kg each.

ELECTRON KICK STAGE R/B was lifted into orbit during the mission ‘Electron | Kinéis Killed the RadIoT Star (Kinéis 6-10)’, on board a Electron space rocket.

The launch took place on Sept. 20, 2024, 11:01 p.m. from Rocket Lab Launch Complex 1A.

For more information about the launch, click the button.

Launch to space Electron | Kinéis Killed the RadIoT Star (Kinéis 6-10)
Electron | Kinéis Killed the RadIoT Star (Kinéis 6-10)

Agency: Kinéis

Status: Launch Successful

Launch date: Sept. 20, 2024, 11:01 p.m. UTC

Rocket: Electron

Launch pad: Rocket Lab Launch Complex 1A

Location: Rocket Lab Launch Complex 1, Mahia Peninsula, New Zealand

...

Latest news about this satellite

News about space launch
Electron launches second set of Kinéis satellites

An Electron launched a second set of satellites for French startup Kinéis Sept. 20, putting that company on track to begin offering Internet of Things services.

News about space launch
Rocket Lab launches 5 Internet of Things satellites following mid-week scrub

The mission will be the 53rd launch of an Electron rocket to date. Liftoff from Launch Complex 1 Pad A happened on Sept. 21 at 11:01 a.m. NZST (Sept. 20 at 7:01 p.m. EDT, 2301 UTC).

News about space launch
Launch Roundup: Falcon 9 and Electron to extend satellite constellations

This week’s manifest includes the delayed launches of a Falcon 9 with Galileo global positioning satellites and an Electron with a second batch of satellites for Kinéis. SpaceX will also launch one batch of Starlink satellites from California as the const...


Newsletter sign-up

Weekly statistics, charts and insights to help you stay on top of the space industry.